Voltar ao catálogo

COSMOS 1275 DEB

AtivoPO
NORAD 18601·DEBRIS·🇷🇺 Russia

Lançado Jun 4, 1981 de Plesetsk Cosmodrome

Loading…

Próximas Passagens (próximas 24 horas)

TLE

AtualizadoSource: Space-Track

Época: Sep 14, 2026, 02:58 UTC

1 18601U 81053LW  26257.12408525  .00002346  00000-0  10119-2 0  9991
2 18601  82.7815 303.4701 0050460 226.0324 163.0987 14.23502006993807

Acompanhe COSMOS 1275 DEB em tempo real com AllMySat

Download on the App Store